Location: LDNL
(36.4545°S, 141.6685°E)
Time: 18:48:37
(UTC+10:00)

A-11 Canister half - Pass Details

Date: 30 January 2022
Orbit: 1527 x 1682 km, 47.3° (Epoch: 20 May)

Event Time Altitude Azimuth Distance (km) Brightness Sun altitude
Rises 00:38:14 0° 285° (WNW) 4,937 11.7 -33.4°
Reaches altitude 10° 00:41:30 10° 280° (W) 3,950 11.2 -33.6°
Maximum altitude 00:51:31 59° 202° (SSW) 1,892 9.5 -34.2°
Drops below altitude 10° 01:01:22 10° 123° (ESE) 3,883 11.3 -34.7°
Sets 01:04:34 0° 118° (ESE) 4,850 11.8 -34.8°
